User: anonymous   Login
Location: Unspecified
(0.0000°N, 0.0000°E)
Time: 07:42:50
(UTC+00:00)
Language:

IGS 8A - Orbit

View from above orbital plane
View from above orbital plane
View from above satellite
View from above satellite

Ground track
Ground track

The orbit data is extracted from the following two-line orbital elements,

1 39061U 13002A   18207.00872450 0.00000000  00000-0  00000-0 0    02
2 39061  97.4567 325.7184 0000999 311.8061  48.1938 15.17637124    06
Epoch (UTC): 26 July 2018 00:12:33
Eccentricity: 0.0000999
inclination: 97.4567°
perigee height: 512 km
apogee height: 513 km
right ascension of ascending node: 325.7184°
argument of perigee: 311.8061°
revolutions per day: 15.17637124
mean anomaly at epoch: 48.1938°
orbit number at epoch: 0

The dashed part of the orbit path shows where the satellite is in the earth's shadow,  

DLR